Regional Weather Roundup
Issued by NWS

Home | Current Version | Previous Version | Text Only | Print | Product List | Glossary On
Versions: 1 2 3 4 5 6 7 8 9 10 11 12 13 14 15 16 17 18 19 20 21 22 23 24 25 26 27 28 29 30 31 32 33 34 35 36 37 38 39 40 41 42 43 44 45 46 47 48 49 50
000
ASUS43 KBIS 271810
RWRND
NORTH DAKOTA REGIONAL WEATHER ROUNDUP
NATIONAL WEATHER SERVICE EASTERN NORTH DAKOTA/GRAND FORKS ND
100 PM CDT TUE JUN 27 2017

  NOTE: "FAIR" INDICATES FEW OR NO CLOUDS BELOW 12,000 FEET WITH NO
  SIGNIFICANT WEATHER AND/OR OBSTRUCTIONS TO VISIBILITY.

NDZ001>003-009>011-017-271900-
...NORTHWEST NORTH DAKOTA...

CITY           SKY/WX    TMP DP  RH WIND       PRES   REMARKS
WILLISTON      FAIR      85  48  27 SW8       29.55F
6HR MIN TEMP:  66; 6HR MAX TEMP:  85;

MINOT          FAIR      79  51  37 S13G23    29.58F
MINOT AFB      FAIR      78  50  38 S14       29.57F
6HR MIN TEMP:  63; 6HR MAX TEMP:  78;

$$

NDZ018>021-031>035-040>046-271900-
...SOUTHWEST NORTH DAKOTA...

CITY           SKY/WX    TMP DP  RH WIND       PRES   REMARKS
BISMARCK       FAIR      82  55  39 S23G31    29.65F
DICKINSON      FAIR      82  49  31 S16       29.59F
GARRISON         N/A     77  52  41 S20G26    29.61F
HETTINGER      FAIR      84  54  35 S13       29.63F
$$

NDZ004>008-012>016-024-026-027-054-271900-
...NORTHEAST NORTH DAKOTA...

CITY           SKY/WX    TMP DP  RH WIND       PRES   REMARKS
GRAND FORKS    FAIR      77  48  35 S20G31    29.75F
GRAND FORKS AF FAIR      77  45  31 S24G31    29.75F
DEVILS LAKE    FAIR      74  48  39 S24       29.71R
$$

NDZ022-023-025-028>030-036>039-047>053-271900-
...SOUTHEAST NORTH DAKOTA...

CITY           SKY/WX    TMP DP  RH WIND       PRES   REMARKS
JAMESTOWN      FAIR      71  47  42 S21       29.73F
FARGO          FAIR      74  43  32 S22G31    29.81F
WAHPETON       FAIR      72  37  28 S20G26    29.86F
$$




USA.gov is the U.S. government's official web portal to all federal, state and local government web resources and services.